Location: Camp at the Woods
(43.2055°N, 93.0905°W)
Time: 13:18:36
(UTC+00:00)

Cosmos 1782 - Visible Passes

Search period start: 21 May 2024 00:00
Search period end: 31 May 2024 00:00
Orbit: 510 x 520 km, 82.5° (Epoch: 20 May)

Date Brightness Start Highest point End Pass type
(mag) Time Alt. Az. Time Alt. Az. Time Alt. Az.
21 May 3.1 02:29:22 10° SSW 02:33:08 66° W 02:36:56 10° N visible
22 May 2.8 02:14:11 10° S 02:17:59 82° W 02:21:49 10° N visible
25 May 6.0 03:07:09 10° W 03:08:29 11° WNW 03:09:49 10° NW visible
26 May 5.9 02:51:08 10° WSW 02:53:10 14° WNW 02:55:12 10° NW visible
27 May 5.7 02:35:20 10° WSW 02:37:50 17° WNW 02:40:21 10° NNW visible
28 May 5.7 02:19:38 10° WSW 02:22:29 20° WNW 02:25:21 10° NNW visible
